This is the latest recevied weather packets stored in our database for station/object EA5JPW-10. If no packets are shown the sender has not sent any weather packets the latest 10 day(s).
| Time | Temp. | Humidity | Pressure | Rain* | Wind** | Luminosity | Snow |
|---|---|---|---|---|---|---|---|
| 1777192430 | 25.56° C | 47% | 998 hPa | - | - | - | - |
| 1777191530 | 24.44° C | 46% | 998.7 hPa | - | - | - | - |
| 1777190629 | 22.78° C | 47% | 998.3 hPa | - | - | - | - |
| 1777189733 | 21.11° C | 47% | 998 hPa | - | - | - | - |
| 1777188833 | 18.33° C | 47% | 997.5 hPa | - | - | - | - |
| 1777187932 | 19.44° C | 48% | 997.9 hPa | - | - | - | - |
| 1777187032 | 17.78° C | 48% | 998 hPa | - | - | - | - |
| 1777186132 | 16.11° C | 47% | 998.2 hPa | - | - | - | - |
| 1777185232 | 14.44° C | 45% | 997.2 hPa | - | - | - | - |
| 1777184331 | 14.44° C | 45% | 997.3 hPa | - | - | - | - |
| 1777183431 | 13.33° C | 45% | 997 hPa | - | - | - | - |
| 1777182531 | 12.22° C | 46% | 997.2 hPa | - | - | - | - |
| 1777181631 | 11.67° C | 44% | 996.3 hPa | - | - | - | - |
| 1777180731 | 11.67° C | 45% | 996.4 hPa | - | - | - | - |
| 1777179831 | 11.67° C | 45% | 996.1 hPa | - | - | - | - |
| 1777178930 | 11.67° C | 44% | 995.9 hPa | - | - | - | - |
| 1777178030 | 12.22° C | 44% | 996.1 hPa | - | - | - | - |
| 1777177130 | 12.22° C | 44% | 996.2 hPa | - | - | - | - |
| 1777176230 | 12.22° C | 44% | 996.1 hPa | - | - | - | - |
| 1777175330 | 12.22° C | 44% | 996.1 hPa | - | - | - | - |
| 1777174430 | 12.22° C | 44% | 996.1 hPa | - | - | - | - |
| 1777173529 | 12.22° C | 44% | 996 hPa | - | - | - | - |
| 1777172629 | 12.78° C | 44% | 996.1 hPa | - | - | - | - |
| 1777171729 | 12.22° C | 44% | 996.2 hPa | - | - | - | - |
| 1777170829 | 12.22° C | 44% | 996.3 hPa | - | - | - | - |
* Rain since midnight (hover to see other rain measurements)
** Current wind speed in m/s (hover to see current wind gust speed)